Regional Weather Roundup
Issued by NWS

Home | Current Version | Previous Version | Text Only | Print | Product List | Glossary Off
Versions: 1 2 3 4 5 6 7 8 9 10 11 12 13 14 15 16 17 18 19 20 21 22 23 24 25 26 27 28 29 30 31 32 33 34 35 36 37 38 39 40 41 42 43 44 45 46 47 48 49 50

000
ASUS43 KDMX 201406
RWRIA

WEATHER ROUNDUP FOR IOWA
NATIONAL WEATHER SERVICE DES MOINES IA
800 AM CST MON NOV 20 2017

NOTE: "FAIR" INDICATES FEW OR NO CLOUDS BELOW 12,000 FEET WITH NO
SIGNIFICANT WEATHER AND/OR OBSTRUCTIONS TO VISIBILITY.

* - THESE STATIONS ARE NOT NWS STATIONS...THUS NOT UNDER NWS
QUALITY CONTROL.  THEY ALSO DO NOT REPORT WEATHER SUCH
AS PRECIPITATION OR FOG.

IAZ001>003-012>014-020>022-031>034-043>046-201500-
   NORTHWEST IOWA

CITY           SKY/WX    TMP DP  RH WIND       PRES   REMARKS
CARROLL *      CLOUDY    39  27  60 S21G29    29.69F WCI  29
CHEROKEE *     CLOUDY    31  28  86 S7        29.65F WCI  25
DENISON *      CLOUDY    36  27  69 S14G21    29.71F WCI  27
LE MARS *      CLOUDY    30  27  86 S9        29.65S WCI  22
ORANGE CITY *  CLOUDY    32  28  86 S13       29.63S WCI  22
SHELDON *      CLOUDY    32  25  74 S7        29.62S WCI  26
SIOUX CITY     CLOUDY    28  24  85 SE7       29.68S WCI  21
SPENCER        CLOUDY    32  25  75 S8        29.64F WCI  25
STORM LAKE *   CLOUDY    32  27  80 SW7       29.66F WCI  26
$$

IAZ055>058-069>071-079>083-090>094-201500-
   SOUTHWEST IOWA

CITY           SKY/WX    TMP DP  RH WIND       PRES   REMARKS
ATLANTIC *     CLEAR     37  28  70 S16G22    29.75F WCI  28
AUDUBON *      CLEAR     39  28  65 S16G22    29.73F WCI  30
CLARINDA *     CLEAR     39  28  65 S13       29.83F WCI  32
COUNCIL BLFS * CLEAR     41  25  52 S16       29.73F
CRESTON *      CLEAR     39  28  65 S12       29.82S WCI  32
HARLAN  *      CLOUDY    36  28  75 S14       29.76F WCI  27
LAMONI         CLEAR     40  28  62 S14       29.85F WCI  32
RED OAK *      CLEAR     37  28  70 S13       29.79F WCI  29
SHENANDOAH *   CLEAR     39  27  60 S9        29.81F WCI  33
$$

IAZ047>049-059>061-072>074-084-201500-
   CENTRAL IOWA

CITY           SKY/WX    TMP DP  RH WIND       PRES   REMARKS
AMES           CLEAR     36  29  75 S7        29.76F WCI  30
ANKENY *       CLEAR     37  28  70 S6        29.79F WCI  33
BOONE *        CLEAR     39  28  65 S14G21    29.73F WCI  31
CHARITON *     CLEAR     39  30  70 S15       29.83F WCI  31
DES MOINES     PTCLDY    38  28  67 S12       29.79F WCI  30
KNOXVILLE *    CLEAR     41  27  56 SW15G24   29.81S
MARSHALLTOWN   CLEAR     37  29  72 S14       29.77F WCI  28
NEWTON *       CLEAR     39  28  65 S16       29.81F WCI  30
PELLA *        CLEAR     39  29  66 S9        29.84F WCI  33
$$

IAZ004>006-015-016-023>025-035-036-201500-
   NORTH CENTRAL IOWA

CITY           SKY/WX    TMP DP  RH WIND       PRES   REMARKS
ALGONA *       CLOUDY    32  28  86 S17       29.66F WCI  21
CLARION *      CLOUDY    32  32 100 S14       29.70F WCI  22
ESTHERVILLE    CLOUDY    27  25  92 S10       29.63F WCI  17
FORT DODGE *   CLEAR     35  26  69 S13       29.70F WCI  26
MASON CITY     CLOUDY    30  26  85 S10       29.71F WCI  21
WEBSTER CITY * CLEAR     34  28  80 S14       29.70F WCI  24
IOWA FALLS *     N/A     35  29  76 S14       29.74F WCI  26
$$

IAZ007>011-017>019-026>030-037>042-050>054-066-201500-
   NORTHEAST IOWA

CITY           SKY/WX    TMP DP  RH WIND       PRES   REMARKS
CEDAR RAPIDS   CLEAR     35  28  75 S9        29.83F WCI  28
CLINTON *      CLEAR     35  29  78 S10       29.89F WCI  27
DECORAH *      CLOUDY    34  28  80 S8G15     29.74S WCI  27
DUBUQUE        CLEAR     32  27  81 S14       29.83F WCI  22
MONTICELLO *   CLEAR     34  28  80 S9        29.84F WCI  26
OELWEIN *      CLOUDY    32  32 100 S13       29.78F WCI  22
WATERLOO       CLOUDY    35  27  72 S8        29.77F WCI  29
$$

IAZ064-065-067-068-078-201500-
   EAST CENTRAL IOWA

CITY           SKY/WX    TMP DP  RH WIND       PRES   REMARKS
DAVENPORT      CLEAR     37  28  70 S12       29.91F WCI  29
IOWA CITY      CLEAR     32  27  81 SE7       29.88F WCI  26
MT. PLEASANT * CLOUDY    36  29  74 S10       29.91F WCI  29
MUSCATINE *    CLEAR     39  28  65 S13       29.90F WCI  32
QUAD CITIES    CLOUDY    38  27  64 S7        29.90F WCI  33
$$

IAZ062-063-075>077-085>089-095>099-201500-
   SOUTHEAST IOWA

CITY           SKY/WX    TMP DP  RH WIND       PRES   REMARKS
BURLINGTON     CLOUDY    39  30  70 S13       29.93F WCI  31
FAIRFIELD *    CLOUDY    39  28  65 S12       29.88F WCI  32
FORT MADISON * CLOUDY    41  30  65 S14       29.93F
KEOKUK *       CLEAR     39  28  65 S16G23    29.93F WCI  30
OSKALOOSA *      N/A     40  30  67 SW13      29.86S WCI  32
OTTUMWA        CLEAR     43  29  57 S18G26    29.86F
WASHINGTON *   CLEAR     36  32  87 S10       29.89F WCI  28
$$

ABBREVIATIONS USED IN REMARKS
   TC - TEMPERATURES IN CELSIUS
  WCI - WIND CHILL INDEX
   HX - HEAT INDEX
  VSB - VISIBILITY
$$





USA.gov is the U.S. government's official web portal to all federal, state and local government web resources and services.